2023/02/03 00:00:00,128.6,-2.6
2023/02/03 00:10:00,128.4,-2.4
2023/02/03 00:20:00,128.3,-2.5
2023/02/03 00:30:00,128.3,-2.1
2023/02/03 00:40:00,128.2,-2.3
2023/02/03 00:50:00,128.2,-2.4
2023/02/03 01:00:00,128.2,-2.3
2023/02/03 01:10:00,128.1,-2.2
2023/02/03 01:20:00,128.0,-2.3
2023/02/03 01:30:00,128.0,-2.2
2023/02/03 01:40:00,127.9,-2.3
2023/02/03 01:50:00,127.9,-2.3
2023/02/03 02:00:00,127.8,-2.3
2023/02/03 02:10:00,127.8,-2.0
2023/02/03 02:20:00,127.7,-2.3
2023/02/03 02:30:00,127.7,-2.2
2023/02/03 02:40:00,127.6,-2.3
2023/02/03 02:50:00,127.6,-2.2
2023/02/03 03:00:00,127.6,-2.1
2023/02/03 03:10:00,127.5,-2.4
2023/02/03 03:20:00,127.5,-2.6
2023/02/03 03:30:00,127.4,-2.4
2023/02/03 03:40:00,127.3,-2.1
2023/02/03 03:50:00,127.3,-2.2
2023/02/03 04:00:00,127.2,-2.2
2023/02/03 04:10:00,127.2,-2.4
2023/02/03 04:20:00,127.1,-2.5
2023/02/03 04:30:00,127.0,-2.5
2023/02/03 04:40:00,127.0,-2.6
2023/02/03 04:50:00,126.9,-2.7
2023/02/03 05:00:00,126.9,-2.6
2023/02/03 05:10:00,126.9,-2.8
2023/02/03 05:20:00,126.8,-2.5
2023/02/03 05:30:00,126.7,-2.5
2023/02/03 05:40:00,126.6,-2.4
2023/02/03 05:50:00,126.6,-2.8
2023/02/03 06:00:00,126.6,-2.4
2023/02/03 06:10:00,126.6,-2.4
2023/02/03 06:20:00,126.5,-2.4
2023/02/03 06:30:00,126.4,-2.4
2023/02/03 06:40:00,126.4,-2.3
2023/02/03 06:50:00,126.4,-2.5
2023/02/03 07:00:00,126.3,-2.4
2023/02/03 07:10:00,126.3,-2.5
2023/02/03 07:20:00,126.2,-2.2
2023/02/03 07:30:00,126.2,-1.9
2023/02/03 07:40:00,126.2,-2.0
2023/02/03 07:50:00,126.2,-2.4
2023/02/03 08:00:00,126.2,-1.9
2023/02/03 08:10:00,126.1,-1.4
2023/02/03 08:20:00,126.0,-1.2
2023/02/03 08:30:00,126.0,-1.1
2023/02/03 08:40:00,126.0,-0.7
2023/02/03 08:50:00,125.9,-0.6
2023/02/03 09:00:00,125.8, 0.4
2023/02/03 09:10:00,125.7, 3.9
2023/02/03 09:20:00,125.7, 5.6
2023/02/03 09:30:00,125.6, 6.1
2023/02/03 09:40:00,125.6, 6.3
2023/02/03 09:50:00,125.5, 5.0
2023/02/03 10:00:00,125.5, 5.0
2023/02/03 10:10:00,125.5, 4.4
2023/02/03 10:20:00,125.4, 5.5
2023/02/03 10:30:00,125.4, 5.9
2023/02/03 10:40:00,125.2, 6.4
2023/02/03 10:50:00,125.0, 5.0
2023/02/03 11:00:00,125.1, 4.3
2023/02/03 11:10:00,125.0, 7.4
2023/02/03 11:20:00,124.8, 7.5
2023/02/03 11:30:00,124.5, 4.6
2023/02/03 11:40:00,124.5, 3.9
2023/02/03 11:50:00,124.3, 3.7
2023/02/03 12:00:00,124.1, 3.8
2023/02/03 12:10:00,124.0, 3.8
2023/02/03 12:20:00,124.0, 3.3
2023/02/03 12:30:00,123.8, 3.7
2023/02/03 12:40:00,123.7, 4.2
2023/02/03 12:50:00,123.6, 3.2
2023/02/03 13:00:00,123.5, 2.8
2023/02/03 13:10:00,123.4, 2.7
2023/02/03 13:20:00,123.4, 2.6
2023/02/03 13:30:00,123.3, 2.4
2023/02/03 13:40:00,123.1, 2.5
2023/02/03 13:50:00,123.0, 2.9
2023/02/03 14:00:00,123.0, 3.0
2023/02/03 14:10:00,123.0, 2.5
2023/02/03 14:20:00,122.9, 2.3
2023/02/03 14:30:00,122.9, 2.3
2023/02/03 14:40:00,122.8, 2.7
2023/02/03 14:50:00,122.8, 2.4
2023/02/03 15:00:00,122.9, 2.0
2023/02/03 15:10:00,122.9, 2.2
2023/02/03 15:20:00,122.9, 2.0
2023/02/03 15:30:00,122.7, 1.5
2023/02/03 15:40:00,122.9, 2.1
2023/02/03 15:50:00,122.8, 1.9
2023/02/03 16:00:00,122.7, 1.8
2023/02/03 16:50:00,122.6,-0.0
2023/02/03 17:00:00,122.6, 0.0
2023/02/03 17:10:00,122.6,-0.2
2023/02/03 17:20:00,122.6,-0.5
2023/02/03 17:30:00,122.5,-0.4
2023/02/03 17:40:00,122.5,-0.5
2023/02/03 17:50:00,122.4,-0.7
2023/02/03 18:00:00,122.3,-0.6
2023/02/03 18:10:00,122.3,-0.5
2023/02/03 18:20:00,122.4,-0.6
2023/02/03 18:30:00,122.3,-0.7
2023/02/03 18:40:00,122.3,-0.7
2023/02/03 18:50:00,122.2,-0.7
2023/02/03 19:00:00,122.2,-0.7
2023/02/03 19:10:00,122.1,-0.8
2023/02/03 19:20:00,122.1,-0.7
2023/02/03 19:30:00,122.0,-0.8
2023/02/03 19:40:00,122.0,-1.2
2023/02/03 19:50:00,122.0,-1.0
2023/02/03 20:00:00,122.0,-1.2
2023/02/03 20:10:00,121.9,-1.3
2023/02/03 20:20:00,121.9,-1.2
2023/02/03 20:30:00,121.9,-1.2
2023/02/03 20:40:00,121.8,-0.8
2023/02/03 20:50:00,121.8,-1.0
2023/02/03 21:00:00,121.7,-1.1
2023/02/03 21:10:00,121.7,-1.1
2023/02/03 21:20:00,121.6,-1.1
2023/02/03 21:30:00,121.6,-1.1
2023/02/03 21:40:00,121.6,-1.2
2023/02/03 21:50:00,121.6,-1.7
2023/02/03 22:00:00,121.6,-1.9
2023/02/03 22:10:00,121.6,-1.4
2023/02/03 22:20:00,121.5,-0.9
2023/02/03 22:30:00,121.5,-1.1
2023/02/03 22:40:00,121.5,-1.2
2023/02/03 22:50:00,121.4,-1.2
2023/02/03 23:00:00,121.3,-1.3
2023/02/03 23:10:00,121.3,-1.8
2023/02/03 23:20:00,121.2,-2.3
2023/02/03 23:30:00,121.2,-2.4
2023/02/03 23:40:00,121.2,-2.6
2023/02/03 23:50:00,121.2,-2.7
